DELTA 1 DEB, 29185

Orbit data source: Space-Track

DELTA 1 DEB, 29185 is space debris in LEO originally from a launch on Thu, 11 Jan 1968 UTC launched from the Air Force Western Test Range (AFWTR). Debris objects in space refer to the collection of defunct objects orbiting the Earth. Examples of debris include non-operational satellites, rocket bodies, and fragments generated from explosions, collisions, or faulty payload assembly.

Loading next visibility...
Identifier
29185, 1968-002J
Orbit
LEO
Country
Flag of USUS
Related business
Manufacturer
Unknown
Mission
Spacecraft
Bus & Motor
Unknown
Mass
Unknown
Launch date (UTC)
1968-01-11 (58 years ago)
Launch vehicle
Unknown
Launch site
Air Force Western Test Range (AFWTR)
Object type
Payload
Rocket body
Debris
Shape & HBR
Unknown shape, 0.1 m
Radar Cross Section
Small (<0.1 m²)

Expand to show TLE details & history
Last TLE update: 3 days ago

TLE from 3 days ago
0 DELTA 1 DEB
1 29185U 68002J   26118.30136659  .00001070  00000-0  23969-2 0  9991
2 29185 105.7893 295.6181 0254455  29.1766 332.3275 13.20582848460532
Epoch: 2026-04-28T07:13Z
TLE epoch observation values (Epoch: 2026-04-28T07:13:58.073Z)
Latitude
-0.00003°
Longitude
-29.1525°
Altitude
1,015.662 km
Speed
7.426 km/s
True Right ascension
19h 42m 28s
True Declination
0° 00' 00"
Sunlit
Object was in daylight at epoch
Visualization orbit readout
Latitude
Unknown
Longitude
Unknown
Altitude
Unknown
Speed
Unknown
Apparent Right ascension
Unknown
Apparent Declination
Unknown
Sunlit
N/A
Visualization observer readout
Local Sidereal Time
04:49:07
Azimuth
Unknown
Elevation
Unknown
Doppler factor
Unknown
Orbital elements
Apogee altitude
1,372.558 km
Perigee altitude
987.905 km
Semi-major axis
7,558.369 km
Eccentricity
0.02545
Inclination
105.7893°
RAAN
295.6181°
Arg. of periapsis
29.1766°
True anomaly
330.93427°
Mean anomaly
332.3275°
Eccentric anomaly
331.63486°
Mean motion
3.30294 °/min
Orbital period
108.99 mins
BSTAR
0.0023969
Loading maneuver chart data...
Computing Atmospheric mass density...
Loading historical data...
Loading historical data...
Loading historical data...
Loading historical data...
Loading historical data...
Loading historical data...
Loading historical data...

Documentation

Showing up to 5 results
|